This is the latest recevied weather packets stored in our database for station/object G4ZMG. If no packets are shown the sender has not sent any weather packets the latest 10 day(s).
| Time | Temp. | Humidity | Pressure | Rain* | Wind** | Luminosity | Snow |
|---|---|---|---|---|---|---|---|
| 1777760436 | 10.56° C | 94% | 1008.8 hPa | 0 mm | - | 0 W/m² | - |
| 1777759829 | 10.56° C | 94% | 1008.9 hPa | 0 mm | - | 0 W/m² | - |
| 1777759210 | 10.56° C | 94% | 1009 hPa | 0.25 mm | - | 0 W/m² | - |
| 1777758603 | 10.56° C | 94% | 1008.9 hPa | 0.25 mm | - | 0 W/m² | - |
| 1777758043 | 10.56° C | 94% | 1008.9 hPa | 0.51 mm | - | 0 W/m² | - |
| 1777757438 | 10.56° C | 94% | 1009.1 hPa | 1.27 mm | - | 0 W/m² | - |
| 1777756830 | 10.56° C | 94% | 1009.2 hPa | 1.52 mm | - | 0 W/m² | - |
| 1777756208 | 10.56° C | 94% | 1009.4 hPa | 2.29 mm | - | 0 W/m² | - |
| 1777755633 | 10° C | 94% | 1009.4 hPa | 3.05 mm | - | 0 W/m² | - |
| 1777755029 | 10° C | 94% | 1009.5 hPa | 4.32 mm | - | 0 W/m² | - |
| 1777754410 | 10° C | 93% | 1009.6 hPa | 4.83 mm | - | 0 W/m² | - |
| 1777753806 | 10° C | 93% | 1009.8 hPa | 5.33 mm | - | 0 W/m² | - |
| 1777753248 | 10.56° C | 93% | 1009.9 hPa | 5.59 mm | - | 0 W/m² | - |
| 1777752644 | 10.56° C | 93% | 1009.9 hPa | 6.1 mm | - | 0 W/m² | - |
| 1777752047 | 10.56° C | 93% | 1009.7 hPa | 6.86 mm | - | 0 W/m² | - |
| 1777751443 | 10.56° C | 93% | 1009.5 hPa | 6.1 mm | - | 0 W/m² | - |
| 1777750838 | 11.11° C | 92% | 1009.4 hPa | 6.1 mm | - | 0 W/m² | - |
| 1777750232 | 11.11° C | 92% | 1009.7 hPa | 5.08 mm | - | 0 W/m² | - |
| 1777749622 | 11.11° C | 92% | 1009.7 hPa | 5.08 mm | - | 0 W/m² | - |
| 1777749007 | 11.11° C | 92% | 1009.9 hPa | 3.56 mm | - | 0 W/m² | - |
| 1777748412 | 11.11° C | 91% | 1009.8 hPa | 3.05 mm | - | 0 W/m² | - |
| 1777747808 | 11.67° C | 91% | 1009.8 hPa | 2.29 mm | - | 0 W/m² | - |
| 1777747205 | 11.67° C | 91% | 1009.9 hPa | 2.29 mm | - | 0 W/m² | - |
| 1777746638 | 11.67° C | 90% | 1009.9 hPa | 2.54 mm | - | 5 W/m² | - |
| 1777746032 | 12.22° C | 90% | 1009.9 hPa | 3.3 mm | - | 21 W/m² | - |
* Rain latest hour (hover to see other rain measurements)
** Current wind speed in m/s (hover to see current wind gust speed)